Location: ?
(35.2180°N, 139.6392°E)
Time: 10:08:24
(UTC+00:00)

NOSS 3-3 (A) - Pass Details

Date: 05 August 2024
Orbit: 734 x 1476 km, 63.4° (Epoch: 14 September)

Event Time Altitude Azimuth Distance (km) Brightness Sun altitude
Rises 19:18:00 0° 199° (SSW) 3,153 6.2 -7.6°
Reaches altitude 10° 19:20:17 10° 196° (SSW) 2,259 5.5 -7.2°
Maximum altitude 19:25:18 61° 117° (ESE) 906 4.1 -6.3°
Drops below altitude 10° 19:30:59 10° 38° (NE) 2,554 7.4 -5.2°
Sets 19:33:43 0° 35° (NE) 3,604 8.1 -4.7°
